SCP
-0 -0 -0 -0 -0 -0 -0 -0 -0 -0 -0 -0 -0 -0 -0 -0 -0 -0 0 0 0 0 0 0 0 0 0 0 0 0 0 0
-0 -0 -0 -0 -0 -0 -0 -0 -0 -0 -0 -0 -0 -0 -0 -0 -0 -0 -0 -0 -0 0 0 0 0 0 0 0 0 0 -0 -0
0 -0 -0 -0 -0 -0 -0 -0 -0 -0 -0 -0 -0 -0 -0 -0 -0 -0 -0 -0 -0 -0 -0 0 0 0 -0 -0 -0 -0 -0 -0
0 0 0 -0 -0 -0 -0 -0 0 0 0 -0 -0 -0 -0 -0 0 -0 -0 -0 -0 -0 -0 0 -0 -0 -0 -0 -0 -0 -0 -0
0 0 0 0 0 0 0 0 0 0 0 0 0 0 0 0 0 -0 -0 -0 -0 -0 0 0 0 -0 -0 -0 0 -0 -0 -0
0 0 0 0 0 0 0 0 0 0 0 0 0 0 0 0 0 0 0 -0 -0 -0 0 0 0 -0 -0 -0 0 -0 -0 -0
0 0 0 0 0 0 0 0 0 0 0 0 0 0 0 0 0 0 0 0 0 0 0 0 0 -0 -0 -0 0 -0 -0 -0
0 0 0 0 0 0 0 0 0 0 0 0 0 0 0 0 0 0 0 0 0 0 0 0 0 -0 0 0 0 0 0 0
0 0 0 0 0 0 0 0 0 0 0 0 0 0 0 0 0 0 0 0 0 0 0 0 -0 0 -0 0 0 0 0 0
0 0 0 0 0 0 0 0 0 0 0 0 0 0 0 0 0 0 0 -0 0 0 0 0 0 0 0 0 0 0 0 0
0 0 0 0 0 0 0 1 0 0 0 0 0 0 0 0 0 0 0 0 0 0 0 0 0 0 0 0 0 0 0 0
1 0 0 0 0 0 0 0 1 0 0 0 0 0 0 0 0 0 0 0 0 1 0 0 0 0 0 0 0 0 0 0
1 1 1 0 0 0 0 0 0 0 0 0 0 0 0 0 0 1 0 0 0 1 0 0 0 0 0 0 0 0 0 0
1 1 0 1 0 0 0 0 0 0 0 0 0 0 1 0 0 0 0 0 0 0 0 0 0 0 0 0 0 0 0 0
0 1 1 1 1 2 1 1 1 0 0 0 0 0 1 0 0 1 0 0 0 0 0 0 0 0 0 0 -0 0 0 0
0 0 1 1 2 2 2 2 1 1 0 0 0 1 2 1 1 2 0 1 0 0 0 0 0 0 0 0 0 0 0 0
1 1 1 1 1 1 2 2 1 1 1 1 1 1 0 0 0 0 1 0 1 0 1 0 0 0 0 0 0 0 0 0
2 1 1 1 1 2 1 2 2 1 2 1 1 1 0 0 0 0 1 0 1 1 1 1 0 0 0 0 0 0 0 0
2 2 2 1 1 2 2 3 3 2 2 1 2 1 0 0 0 0 0 1 1 1 1 1 0 0 0 0 0 0 0 0
Wind_Speed_500mb
43 47 49 49 46 43 39 38 37 35 33 29 24 21 17 13 9 6 4 4 4 4 3 3 4 4 1 1 2 5 6 3
45 46 52 49 45 41 40 38 37 35 32 27 23 20 16 13 10 7 6 5 5 4 7 7 6 5 3 1 2 2 4 1
46 45 56 52 46 42 39 38 37 35 31 27 24 20 16 13 11 8 7 7 6 7 11 11 9 6 6 5 5 4 4 4
45 42 54 57 49 44 39 37 37 34 30 27 24 20 18 15 12 10 9 8 8 11 11 8 6 4 4 6 8 8 5 9
45 41 46 53 54 49 45 40 37 34 31 28 25 24 22 18 15 12 11 10 11 8 7 7 6 5 5 6 3 5 6 11
48 46 45 46 45 44 43 46 41 37 34 31 29 28 24 16 15 15 12 15 15 7 5 7 7 7 9 11 5 6 12 4
47 50 48 48 46 44 38 41 45 42 39 36 33 30 27 16 17 13 24 17 14 8 6 9 7 12 16 5 5 10 3 6
45 48 48 51 51 47 42 38 39 34 35 34 33 29 24 19 20 19 16 16 13 8 7 17 17 18 8 3 9 7 4 4
42 49 48 48 53 49 41 39 34 36 32 31 31 32 28 25 21 17 12 12 6 13 5 9 7 13 7 6 5 6 7 7
40 46 48 48 51 52 49 40 36 36 35 31 31 33 32 26 22 19 17 15 13 9 12 10 10 9 7 6 5 8 7 10
32 43 47 49 54 50 53 44 40 38 36 36 31 31 34 29 26 21 19 17 15 13 12 11 12 8 6 7 10 7 7 7
27 34 46 50 50 50 49 52 43 37 36 34 33 34 33 33 32 27 21 20 17 18 15 14 13 11 8 8 9 8 6 8
20 31 37 42 48 47 45 43 40 38 36 36 33 33 37 35 35 33 27 22 18 19 13 17 13 13 12 11 11 8 9 8
19 26 35 44 44 47 45 41 41 39 40 35 36 37 41 37 35 37 26 25 24 20 21 18 17 15 15 13 15 12 11 10
21 24 29 35 44 48 43 45 38 38 39 41 40 42 39 37 36 39 30 28 26 23 22 22 21 16 15 15 14 16 12 12
4 16 28 34 40 49 48 43 43 43 41 44 58 52 44 52 41 43 34 30 30 28 25 28 23 21 16 16 15 16 15 18
13 3 18 29 36 41 42 45 39 37 41 42 37 50 50 54 45 40 37 33 30 24 30 36 31 17 16 17 16 17 19 19
17 14 10 22 32 37 40 37 35 38 41 39 39 51 68 53 35 37 45 42 36 36 31 35 34 28 19 18 24 19 15 21
24 19 16 9 23 29 34 38 38 37 38 44 39 35 36 45 40 44 46 43 44 34 33 35 32 27 23 23 21 25 33 22
Wind_Direction_500mb
165 167 177 177 177 175 177 179 179 179 183 184 182 179 179 180 187 210 244 286 314 333 354 350 345 330 335 167 200 188 180 115
168 172 175 181 181 181 179 181 183 183 186 189 189 190 189 190 199 229 271 294 307 319 328 325 310 304 294 247 208 200 197 104
170 177 181 182 184 184 184 183 185 189 191 193 195 198 203 208 217 235 268 291 297 310 319 308 297 281 279 283 267 241 240 202
171 176 182 181 186 186 188 189 190 192 196 199 202 206 215 222 233 253 279 287 288 314 325 317 318 320 310 295 275 251 235 225
172 179 175 181 186 188 189 195 197 198 201 205 209 214 222 229 241 261 278 279 293 323 343 343 328 328 336 330 289 218 180 148
175 182 176 179 186 185 192 196 199 204 207 210 214 221 227 232 252 257 267 260 291 307 335 347 340 352 356 35 3 154 165 257
180 182 178 182 190 185 192 202 201 208 211 213 219 227 225 216 233 225 255 279 276 286 321 342 353 17 29 311 358 84 303 289
187 187 187 182 194 191 191 204 197 201 206 214 212 212 225 219 237 232 258 278 272 343 304 350 348 5 307 264 272 283 256 241
194 193 191 190 196 191 197 203 198 198 206 207 212 216 208 212 226 224 239 258 252 266 246 291 309 270 314 295 280 261 255 254
197 200 198 198 196 193 196 205 202 202 209 209 211 215 209 216 218 231 226 224 250 255 279 276 285 286 297 303 289 277 262 241
207 204 204 201 206 198 198 203 204 207 210 207 213 215 222 211 214 221 230 235 238 258 263 267 271 274 290 261 284 255 241 241
203 202 202 203 211 205 207 200 209 213 210 217 212 218 217 222 213 212 223 232 245 259 234 260 261 270 264 277 260 267 241 234
197 206 204 209 209 218 210 214 214 217 219 217 220 219 219 221 217 237 216 227 238 256 262 251 262 265 263 259 248 242 244 235
214 205 203 207 208 216 216 215 216 218 221 223 223 222 226 233 227 219 225 223 229 240 257 249 254 254 259 248 245 228 238 233
203 225 212 214 211 212 218 216 219 220 222 221 224 221 222 225 219 234 217 215 219 234 244 245 239 250 244 260 247 234 234 240
34 206 222 217 221 211 212 215 217 219 219 219 219 214 222 232 220 216 222 229 221 225 231 241 234 246 253 248 250 246 261 248
36 13 219 223 222 221 218 218 222 223 226 230 231 226 227 234 241 219 232 219 230 229 229 230 240 232 253 236 233 255 257 253
31 10 315 231 227 224 217 228 226 221 221 229 225 240 228 229 229 238 240 229 219 237 232 244 240 238 239 239 247 241 266 274
32 25 15 311 225 227 225 223 229 229 229 223 227 230 233 238 241 242 232 229 221 224 212 242 240 231 243 234 247 250 250 273
Wind_Speed_850mb
43 47 49 49 46 43 39 38 37 35 33 29 24 21 17 13 9 6 4 4 4 4 3 3 4 4 1 1 2 5 6 3
45 46 52 49 45 41 40 38 37 35 32 27 23 20 16 13 10 7 6 5 5 4 7 7 6 5 3 1 2 2 4 1
46 45 56 52 46 42 39 38 37 35 31 27 24 20 16 13 11 8 7 7 6 7 11 11 9 6 6 5 5 4 4 4
45 42 54 57 49 44 39 37 37 34 30 27 24 20 18 15 12 10 9 8 8 11 11 8 6 4 4 6 8 8 5 9
45 41 46 53 54 49 45 40 37 34 31 28 25 24 22 18 15 12 11 10 11 8 7 7 6 5 5 6 3 5 6 11
48 46 45 46 45 44 43 46 41 37 34 31 29 28 24 16 15 15 12 15 15 7 5 7 7 7 9 11 5 6 12 4
47 50 48 48 46 44 38 41 45 42 39 36 33 30 27 16 17 13 24 17 14 8 6 9 7 12 16 5 5 10 3 6
45 48 48 51 51 47 42 38 39 34 35 34 33 29 24 19 20 19 16 16 13 8 7 17 17 18 8 3 9 7 4 4
42 49 48 48 53 49 41 39 34 36 32 31 31 32 28 25 21 17 12 12 6 13 5 9 7 13 7 6 5 6 7 7
40 46 48 48 51 52 49 40 36 36 35 31 31 33 32 26 22 19 17 15 13 9 12 10 10 9 7 6 5 8 7 10
32 43 47 49 54 50 53 44 40 38 36 36 31 31 34 29 26 21 19 17 15 13 12 11 12 8 6 7 10 7 7 7
27 34 46 50 50 50 49 52 43 37 36 34 33 34 33 33 32 27 21 20 17 18 15 14 13 11 8 8 9 8 6 8
20 31 37 42 48 47 45 43 40 38 36 36 33 33 37 35 35 33 27 22 18 19 13 17 13 13 12 11 11 8 9 8
19 26 35 44 44 47 45 41 41 39 40 35 36 37 41 37 35 37 26 25 24 20 21 18 17 15 15 13 15 12 11 10
21 24 29 35 44 48 43 45 38 38 39 41 40 42 39 37 36 39 30 28 26 23 22 22 21 16 15 15 14 16 12 12
4 16 28 34 40 49 48 43 43 43 41 44 58 52 44 52 41 43 34 30 30 28 25 28 23 21 16 16 15 16 15 18
13 3 18 29 36 41 42 45 39 37 41 42 37 50 50 54 45 40 37 33 30 24 30 36 31 17 16 17 16 17 19 19
17 14 10 22 32 37 40 37 35 38 41 39 39 51 68 53 35 37 45 42 36 36 31 35 34 28 19 18 24 19 15 21
24 19 16 9 23 29 34 38 38 37 38 44 39 35 36 45 40 44 46 43 44 34 33 35 32 27 23 23 21 25 33 22
Wind_Direction_850mb
165 167 177 177 177 175 177 179 179 179 183 184 182 179 179 180 187 210 244 286 314 333 354 350 345 330 335 167 200 188 180 115
168 172 175 181 181 181 179 181 183 183 186 189 189 190 189 190 199 229 271 294 307 319 328 325 310 304 294 247 208 200 197 104
170 177 181 182 184 184 184 183 185 189 191 193 195 198 203 208 217 235 268 291 297 310 319 308 297 281 279 283 267 241 240 202
171 176 182 181 186 186 188 189 190 192 196 199 202 206 215 222 233 253 279 287 288 314 325 317 318 320 310 295 275 251 235 225
172 179 175 181 186 188 189 195 197 198 201 205 209 214 222 229 241 261 278 279 293 323 343 343 328 328 336 330 289 218 180 148
175 182 176 179 186 185 192 196 199 204 207 210 214 221 227 232 252 257 267 260 291 307 335 347 340 352 356 35 3 154 165 257
180 182 178 182 190 185 192 202 201 208 211 213 219 227 225 216 233 225 255 279 276 286 321 342 353 17 29 311 358 84 303 289
187 187 187 182 194 191 191 204 197 201 206 214 212 212 225 219 237 232 258 278 272 343 304 350 348 5 307 264 272 283 256 241
194 193 191 190 196 191 197 203 198 198 206 207 212 216 208 212 226 224 239 258 252 266 246 291 309 270 314 295 280 261 255 254
197 200 198 198 196 193 196 205 202 202 209 209 211 215 209 216 218 231 226 224 250 255 279 276 285 286 297 303 289 277 262 241
207 204 204 201 206 198 198 203 204 207 210 207 213 215 222 211 214 221 230 235 238 258 263 267 271 274 290 261 284 255 241 241
203 202 202 203 211 205 207 200 209 213 210 217 212 218 217 222 213 212 223 232 245 259 234 260 261 270 264 277 260 267 241 234
197 206 204 209 209 218 210 214 214 217 219 217 220 219 219 221 217 237 216 227 238 256 262 251 262 265 263 259 248 242 244 235
214 205 203 207 208 216 216 215 216 218 221 223 223 222 226 233 227 219 225 223 229 240 257 249 254 254 259 248 245 228 238 233
203 225 212 214 211 212 218 216 219 220 222 221 224 221 222 225 219 234 217 215 219 234 244 245 239 250 244 260 247 234 234 240
34 206 222 217 221 211 212 215 217 219 219 219 219 214 222 232 220 216 222 229 221 225 231 241 234 246 253 248 250 246 261 248
36 13 219 223 222 221 218 218 222 223 226 230 231 226 227 234 241 219 232 219 230 229 229 230 240 232 253 236 233 255 257 253
31 10 315 231 227 224 217 228 226 221 221 229 225 240 228 229 229 238 240 229 219 237 232 244 240 238 239 239 247 241 266 274
32 25 15 311 225 227 225 223 229 229 229 223 227 230 233 238 241 242 232 229 221 224 212 242 240 231 243 234 247 250 250 273